カタログに戻る

COSMOS 970 DEB

運用中LEO
NORAD 65004·DEBRIS·🇷🇺 Russia

打ち上げ Dec 21, 1977 から Baikonur Cosmodrome

Loading…

次のパス (今後24時間)

TLE

経年Source: Space-Track

元期: Sep 9, 2026, 01:04 UTC

1 65004U 77121DR  26252.04474958  .00000339  00000-0  30963-3 0  9990
2 65004  65.9020  34.4175 0109222  50.3009 310.7631 13.93024685219695

AllMySatでCOSMOS 970 DEBをリアルタイム追跡

Download on the App Store